Location: Aldenham
(51.6667°N, 0.3500°W)
Time: 18:04:36
(UTC+00:00)

Explorer 7 - Pass Details

Date: 16 February 2026
Orbit: 430 x 542 km, 50.2° (Epoch: 8 March)

Event Time Altitude Azimuth Distance (km) Brightness Sun altitude
Rises 22:12:31 0° 275° (W) 2,595 - -43.3°
Reaches altitude 10° 22:16:17 10° 237° (WSW) 1,739 - -43.7°
Maximum altitude 22:17:17 11° 223° (SW) 1,694 - -43.8°
Drops below altitude 10° 22:18:18 10° 208° (SSW) 1,752 - -43.9°
Sets 22:22:10 0° 171° (S) 2,662 - -44.3°
